Find Starlink 35686

NORAD ID: 66407 Int'l Des: 2025-257 Owner: SPXS Country: US Constellation: starlink operational
LEOCIRCULAR

現在のビュー

3D地球を読み込み中...

Starlink 35686について

説明を読み込み中...

次回通過

Passes for default location (London). Set your location on the main map for personalized predictions.

高度履歴

Loading altitude history...

軌道要素

1 66407U 25257AD 26145.93056452 .00018220 00000-0 54888-3 0 9995
2 66407 53.1611 217.2322 0000249 343.1652 16.9342 15.34410597 31570
Epoch: May 25, 2026 • Age: 17 hours

現在のステータス

高度 475.7 km
速度 7.63 km/s
衛星直下点 -39.64°S, 36.73°W
打ち上げ日 Nov 9, 2025
運用期間 0.5 years
タイプ internet

技術仕様

分類 Payload
質量 575.00 kg
乾燥質量 530.00 kg
総質量 575.00 kg
長さ 0.30 m
直径 4.10 m
スパン 29.00 m
形状 Box + pan
製造者 SPXS
バスタイプ Starlink V2MO
フェーズステータス In Orbit
所有者/国 SPXS/US

Most Searched